Location: Bremen
(53.0830°N, 8.8000°E)
Time: 20:06:52
(UTC+01:00)

ISS - Pass Details

Date: 06 November 2020
Orbit: 418 x 420 km, 51.6° (Epoch: 06 December)

Event Time Altitude Azimuth Distance (km) Brightness Sun altitude
Exits shadow 05:57:15 24° 241° (WSW) 914 -2.5 -14.5°
Maximum altitude 05:58:19 30° 207° (SSW) 790 -2.6 -14.3°
Drops below altitude 10° 06:01:19 10° 144° (SE) 1,503 -0.3 -13.9°
Sets 06:03:33 0° 134° (SE) 2,366 1.0 -13.5°
